Location: Unspecified
(0.0000°N, 0.0000°E)
Time: 21:31:39
(UTC+00:00)

deb Explorer IX - Visible Passes

Search period start: 21 July 2018 00:00
Search period end: 31 July 2018 00:00
Orbit: 550 x 1108 km, 38.8° (Epoch: 21 July)

Date Brightness Start Highest point End Pass type
(mag) Time Alt. Az. Time Alt. Az. Time Alt. Az.
21 Jul ? 02:14:09 12° NE 02:14:09 12° NE 02:14:35 10° NE visible
21 Jul ? 03:55:36 23° NNW 03:55:36 23° NNW 04:00:21 10° N visible
22 Jul ? 03:35:54 20° NNW 03:35:54 20° NNW 03:39:20 10° N visible
23 Jul ? 03:16:08 17° N 03:16:08 17° N 03:18:18 10° N visible
24 Jul ? 02:56:18 13° N 02:56:18 13° N 02:57:14 10° N visible
